Stations météo

réclame
Mon MeteoGroup
Baumholder, Allemagne (10619): Température de l'air & dewpoint: 13.06.2019 17:00:00 - 19.06.2019 17:00:00 (CEST)Baumholder, Allemagne (10619): Vitesse du vent: 13.06.2019 17:00:00 - 19.06.2019 17:00:00 (CEST)Baumholder, Allemagne (10619): Direction du vent: 13.06.2019 17:00:00 - 19.06.2019 17:00:00 (CEST)Baumholder, Allemagne (10619): reduced air pressure: 13.06.2019 17:00:00 - 19.06.2019 17:00:00 (CEST)Baumholder, Allemagne (10619): visibility: 13.06.2019 17:00:00 - 19.06.2019 17:00:00 (CEST)
Date & Time tt [°C] td [°C] ff [km/h] ff [knt] dd ppp [hPa] vv [km]
19.06.2019 17:00:00 25,3 13,5 11 6 WSW 997,8 10
19.06.2019 16:00:00 24,9 13,6 13 7 W - 10
19.06.2019 15:00:00 24,4 13,6 16 9 W 999,0 10
19.06.2019 14:00:00 22,9 14,1 9 5 SSW 999,0 10
19.06.2019 13:00:00 23,4 13,3 18 10 SW 999,0 10
19.06.2019 12:00:00 26,9 13,6 9 5 SSE 998,3 10
19.06.2019 11:00:00 22,6 13,2 15 8 W 998,7 10
19.06.2019 10:00:00 21,2 12,0 15 8 SW 999,2 10
19.06.2019 09:00:00 20,9 10,1 15 8 SSW 998,7 10
19.06.2019 08:00:00 20,7 12,4 9 5 SSW 999,0 10
19.06.2019 07:00:00 19,6 13,0 8 4 S 999,0 10
19.06.2019 06:00:00 18,9 12,8 8 4 S 999,3 10
19.06.2019 05:00:00 20,0 12,0 5 3 S 999,3 10
19.06.2019 04:00:00 20,5 10,0 0 0 N 999,5 10
19.06.2019 03:00:00 - - - - - - -
19.06.2019 02:00:00 - - - - - - -
19.06.2019 01:00:00 - - - - - - -
19.06.2019 00:00:00 - - - - - - -
18.06.2019 23:00:00 - - - - - - -
18.06.2019 22:00:00 21,8 12,6 0 0 N 1001,4 10
18.06.2019 21:00:00 23,0 11,9 0 0 N 1001,6 10
18.06.2019 20:00:00 23,7 12,4 0 0 N 1001,9 10
18.06.2019 19:00:00 24,1 13,4 5 3 S 1001,9 10
18.06.2019 18:00:00 24,5 13,3 11 6 SW 1002,2 10
18.06.2019 17:00:00 24,2 13,2 5 3 SSW 1002,6 10
18.06.2019 16:00:00 24,9 11,4 8 4 SW 1002,9 10
18.06.2019 15:00:00 24,6 12,1 0 0 N 1003,2 10
18.06.2019 14:00:00 23,5 14,0 8 4 SSW 1003,6 10
18.06.2019 13:00:00 23,4 15,0 8 4 S 1003,8 10
18.06.2019 12:00:00 22,8 14,6 9 5 ESE 1004,1 10
18.06.2019 11:00:00 22,0 13,6 5 3 ESE 1004,1 10
18.06.2019 10:00:00 21,2 14,0 5 3 SE 1004,4 10
18.06.2019 09:00:00 19,4 13,7 8 4 ENE 1005,0 8
18.06.2019 08:00:00 18,4 12,5 8 4 E 1004,8 10
18.06.2019 07:00:00 17,1 12,0 9 5 E 1004,6 10
18.06.2019 06:00:00 16,6 11,6 8 4 E 1004,6 10
18.06.2019 05:00:00 17,0 11,3 9 5 E 1005,0 10
18.06.2019 04:00:00 17,3 10,8 5 3 E 1005,1 10
18.06.2019 03:00:00 17,2 10,7 0 0 N 1005,3 10
18.06.2019 02:00:00 17,4 10,6 0 0 N 1006,0 10
18.06.2019 01:00:00 17,5 11,1 5 3 E 1006,3 10
18.06.2019 00:00:00 17,6 10,7 5 3 E 1006,3 10
17.06.2019 23:00:00 18,0 10,5 0 0 N 1006,5 10
17.06.2019 22:00:00 18,5 10,3 5 3 ENE 1006,5 10
17.06.2019 21:00:00 19,8 10,6 0 0 N 1006,3 10
17.06.2019 20:00:00 21,1 11,0 5 3 ENE 1006,8 10
17.06.2019 19:00:00 21,8 10,7 11 6 E 1006,8 10
17.06.2019 18:00:00 21,6 11,7 8 4 ESE 1007,2 10
17.06.2019 17:00:00 21,7 10,9 8 4 E 1007,5 10
17.06.2019 16:00:00 21,9 11,2 0 0 N 1008,2 10
17.06.2019 15:00:00 20,4 10,7 9 5 E 1008,7 10
17.06.2019 14:00:00 21,2 11,6 11 6 E 1008,9 10
17.06.2019 13:00:00 19,5 11,4 11 6 ESE 1009,2 10
17.06.2019 12:00:00 19,2 12,3 11 6 E 1009,7 10
17.06.2019 11:00:00 18,8 11,0 11 6 E 1010,1 10
17.06.2019 10:00:00 17,9 11,3 11 6 ESE 1010,1 10
17.06.2019 09:00:00 17,2 11,0 8 4 E 1010,4 10
17.06.2019 08:00:00 15,7 10,6 5 3 E 1010,4 10
17.06.2019 07:00:00 14,7 9,6 5 3 E 1010,4 10
17.06.2019 06:00:00 13,7 8,7 0 0 N 1010,6 10
17.06.2019 05:00:00 13,6 8,5 5 3 E 1010,9 10
17.06.2019 04:00:00 13,9 8,3 0 0 N 1010,9 10
17.06.2019 03:00:00 14,5 8,5 0 0 N 1010,9 10
17.06.2019 02:00:00 14,9 9,2 0 0 N 1010,9 10
17.06.2019 01:00:00 15,0 9,0 0 0 N 1010,9 10
17.06.2019 00:00:00 14,8 9,1 0 0 N 1011,3 10
16.06.2019 23:00:00 14,8 9,1 0 0 N 1011,3 10
16.06.2019 22:00:00 15,8 9,3 0 0 N 1010,9 10
16.06.2019 21:00:00 17,3 9,2 0 0 N 1010,9 10
16.06.2019 20:00:00 18,0 8,5 8 4 W 1010,9 10
16.06.2019 19:00:00 18,1 9,8 9 5 W 1011,1 10
16.06.2019 18:00:00 17,9 8,9 8 4 WSW 1011,1 10
16.06.2019 17:00:00 17,7 9,8 11 6 W 1011,1 10
16.06.2019 16:00:00 17,8 9,8 13 7 SW 1010,9 10
16.06.2019 15:00:00 17,8 10,2 9 5 SW 1010,9 10
16.06.2019 14:00:00 16,8 9,2 11 6 W 1010,9 10
16.06.2019 13:00:00 17,2 9,4 15 8 W 1010,9 10
16.06.2019 12:00:00 16,4 9,5 13 7 WSW 1010,9 10
16.06.2019 11:00:00 16,6 9,3 15 8 SW 1010,6 10
16.06.2019 10:00:00 15,6 10,7 9 5 SSW 1010,3 10
16.06.2019 09:00:00 14,3 10,4 8 4 W 1009,9 10
16.06.2019 08:00:00 13,1 10,5 8 4 WSW 1009,6 10
16.06.2019 07:00:00 12,4 10,7 5 3 WSW 1009,3 10
16.06.2019 06:00:00 12,2 10,8 9 5 WSW 1009,3 10
16.06.2019 05:00:00 12,8 10,6 11 6 W 1008,9 10
16.06.2019 04:00:00 13,3 10,8 15 8 WSW 1008,4 10
16.06.2019 03:00:00 14,0 10,5 15 8 WSW 1008,2 10
16.06.2019 02:00:00 14,7 10,1 15 8 W 1008,0 10
16.06.2019 01:00:00 14,9 10,4 9 5 W 1007,9 10
16.06.2019 00:00:00 15,1 10,5 9 5 W 1007,6 10
15.06.2019 23:00:00 15,2 10,3 9 5 W 1006,7 10
15.06.2019 22:00:00 16,6 10,5 8 4 W 1005,9 10
15.06.2019 21:00:00 18,2 10,7 9 5 W 1005,9 10
15.06.2019 20:00:00 18,5 11,0 5 3 W 1005,3 10
15.06.2019 19:00:00 19,3 10,0 11 6 W 1005,2 10
15.06.2019 18:00:00 20,2 11,0 15 8 WSW 1005,3 10
15.06.2019 17:00:00 19,6 11,1 16 9 W 1005,3 10
15.06.2019 16:00:00 20,3 11,9 15 8 WSW 1005,3 10
15.06.2019 15:00:00 18,5 11,9 9 5 W 1005,3 10
15.06.2019 14:00:00 18,4 11,7 15 8 WSW 1005,5 10
15.06.2019 13:00:00 16,4 12,8 16 9 WSW 1005,4 10
15.06.2019 12:00:00 16,1 12,8 21 11 WSW 1005,0 10
15.06.2019 11:00:00 15,4 13,5 18 10 WSW 1004,4 10
15.06.2019 10:00:00 15,7 13,1 21 11 WSW 1003,4 10
15.06.2019 09:00:00 14,4 12,9 21 11 W 1002,7 10
15.06.2019 08:00:00 14,6 13,0 21 11 WSW 1001,8 10
15.06.2019 07:00:00 13,8 13,1 11 6 W 1001,0 6
15.06.2019 06:00:00 13,5 12,5 15 8 W 1000,1 10
15.06.2019 05:00:00 14,2 11,9 9 5 W 999,4 10
15.06.2019 04:00:00 13,9 12,0 9 5 N 998,2 10
15.06.2019 03:00:00 14,6 12,0 0 0 N 998,6 10
15.06.2019 02:00:00 13,5 12,6 0 0 N 999,6 10
15.06.2019 01:00:00 14,6 12,6 0 0 N 1000,1 10
15.06.2019 00:00:00 13,9 13,1 0 0 N 1001,3 10
14.06.2019 23:00:00 14,8 13,4 9 5 SSW 1003,2 10
14.06.2019 22:00:00 14,5 12,8 9 5 E 1001,8 10
14.06.2019 21:00:00 15,8 12,7 8 4 E 1002,0 10
14.06.2019 20:00:00 16,3 12,8 8 4 ESE 1002,5 10
14.06.2019 19:00:00 16,9 12,5 5 3 S 1003,5 10
14.06.2019 18:00:00 18,0 11,4 9 5 SSE 1004,2 10
14.06.2019 17:00:00 18,5 11,2 13 7 ESE 1004,2 10
14.06.2019 16:00:00 19,5 11,2 9 5 SE 1004,7 10
14.06.2019 15:00:00 19,8 9,4 9 5 SSW 1005,0 10
14.06.2019 14:00:00 19,6 10,5 9 5 S 1005,3 10
14.06.2019 13:00:00 20,1 9,1 15 8 SSW 1005,7 10
14.06.2019 12:00:00 19,8 10,9 9 5 S 1005,3 10
14.06.2019 11:00:00 17,7 11,2 0 0 N 1005,2 10
14.06.2019 10:00:00 16,2 9,5 0 0 N 1005,5 10
14.06.2019 09:00:00 17,7 9,4 8 4 ESE 1004,3 10
14.06.2019 08:00:00 16,0 8,8 0 0 N 1003,8 10
14.06.2019 07:00:00 15,1 7,3 0 0 N 1003,6 10
14.06.2019 06:00:00 13,2 7,2 8 4 ESE 1003,5 10
14.06.2019 05:00:00 13,1 6,7 9 5 E 1003,2 10
14.06.2019 04:00:00 13,6 6,3 11 6 E 1003,2 10
14.06.2019 03:00:00 13,4 6,5 13 7 E 1003,7 10
14.06.2019 02:00:00 13,4 6,6 11 6 E 1004,0 10
14.06.2019 01:00:00 14,2 6,7 11 6 E 1004,4 10
14.06.2019 00:00:00 14,2 6,5 11 6 ESE 1004,6 10
13.06.2019 23:00:00 14,1 7,6 8 4 E 1004,6 10
13.06.2019 22:00:00 15,4 7,7 9 5 ESE 1004,2 10
13.06.2019 21:00:00 15,1 8,9 5 3 E 1003,9 10
13.06.2019 20:00:00 16,1 8,9 0 0 N 1004,2 10
13.06.2019 19:00:00 18,5 6,3 18 10 S 1003,7 10
13.06.2019 18:00:00 18,8 6,5 9 5 SW 1003,5 10
13.06.2019 17:00:00 18,2 7,4 13 7 SSW 1003,9 10

tt = Température de l'air
td = dewpoint
ff = Vitesse du vent
dd = Direction du vent
ppp = reduced air pressure
vv = visibility

stations d'obs. à proximité